Home   Weather   Aarhus   Past weeks

Flag for Denmark Past Weather in Aarhus, Denmark — Yesterday and Last 2 Weeks

54 °F

Scattered clouds.

Feels Like: 49 °F
Forecast: 45 / 53 °F
Wind: 17 mph from Northwest

Location: Tirstrup

Current Time: Oct 28, 2016 at 4:04:26 PM

Latest Report: Oct 28, 2016 at 3:20 PM

Visibility: N/A

Pressure: 30.15 "Hg

Humidity: 51%

Dew Point: 36 °F

Location of AarhusLocation

Past Weather in Aarhus — Graph


Aarhus Temperature Yesterday

Maximum temperature yesterday: 57 °F (at 1:50 PM)
Minimum temperature yesterday: 48 °F (at 12:20 AM)
Average temperature yesterday: 53 °F

High & Low Weather Summary for the Past Weeks

High57 °F (Oct 27, 1:50 PM)94% (Oct 18, 3:50 AM)30.36 "Hg (Oct 18, 3:50 AM)
Low34 °F (Oct 25, 10:50 PM)51% (Oct 28, 12:20 PM)29.95 "Hg (Oct 19, 2:20 AM)
Average48 °F80%30.14 "Hg
* Reported Oct 13 2:20 PM — Oct 28 2:50 PM, Aarhus, Weather by CustomWeather, © 2016

Note: Actual official high and low records may vary slightly from our data, if they occured in-between our weather recording intervals... More about our weather records


Aarhus Weather History for the Previous 24 Hours

Scroll right to see more
Time TempWeatherWind HumidityBarometerVisibility
2:50 PM
Fri, Oct 28
52 °FSprinkles. Scattered clouds.18 mph62%30.15 "HgN/A
2:20 PM54 °FPassing clouds.21 mph51%30.15 "HgN/A
1:50 PM54 °FPassing clouds.20 mph51%30.15 "HgN/A
1:20 PM54 °FScattered clouds.21 mph54%30.15 "HgN/A
12:50 PM54 °FCool.22 mph51%30.15 "HgN/A
12:20 PM54 °FCool.22 mph51%30.12 "HgN/A
11:50 AM54 °FCool.22 mph54%30.12 "HgN/A
11:20 AM52 °FCool.20 mph58%30.12 "HgN/A
10:50 AM52 °FCool.20 mph58%30.09 "HgN/A
10:20 AM52 °FCool.18 mph67%30.09 "HgN/A
9:50 AM52 °FCool.14 mph77%30.07 "HgN/A
9:20 AM52 °FPassing clouds.14 mph77%30.07 "HgN/A
8:50 AM52 °FPartly sunny.12 mph77%30.04 "HgN/A
8:20 AM52 °FDrizzle. Partly sunny.15 mph82%30.04 "HgN/A
7:50 AM54 °FRain showers. Passing clouds.9 mph88%30.01 "HgN/A
7:20 AM54 °FPassing clouds.9 mph88%30.01 "HgN/A
6:50 AM54 °FSprinkles. Passing clouds.10 mph82%30.01 "Hg3 mi
6:20 AM54 °FLow clouds.10 mph82%30.01 "HgN/A
5:50 AM55 °FOvercast.15 mph77%30.01 "HgN/A
5:20 AM55 °FOvercast.12 mph77%30.01 "HgN/A
4:50 AM54 °FSprinkles. Overcast.12 mph82%30.04 "HgN/A
4:20 AM54 °FSprinkles. Passing clouds.10 mph82%30.04 "Hg3 mi
3:50 AM54 °FSprinkles. Passing clouds.9 mph82%30.04 "Hg4 mi
3:20 AM54 °FPassing clouds.10 mph77%30.04 "Hg4 mi
2:50 AM54 °FPassing clouds.10 mph77%30.04 "HgN/A
2:20 AM54 °FOvercast.10 mph77%30.07 "HgN/A
1:50 AM54 °FPassing clouds.9 mph77%30.07 "HgN/A
1:20 AM54 °FPassing clouds.9 mph72%30.09 "HgN/A
12:50 AM54 °FPassing clouds.9 mph72%30.09 "HgN/A
12:20 AM55 °FPassing clouds.9 mph67%30.09 "HgN/A
11:50 PM
Thu, Oct 27
55 °FPassing clouds.9 mph67%30.12 "HgN/A
11:20 PM55 °FPassing clouds.8 mph67%30.12 "HgN/A
10:50 PM55 °FPassing clouds.9 mph67%30.12 "HgN/A
10:20 PM54 °FSprinkles. Passing clouds.8 mph77%30.15 "HgN/A
9:50 PM55 °FMostly cloudy.7 mph72%30.15 "HgN/A
9:20 PM55 °FPassing clouds.8 mph72%30.15 "HgN/A
8:50 PM54 °FPassing clouds.8 mph77%30.15 "HgN/A
8:20 PM54 °FOvercast.7 mph77%30.18 "HgN/A
7:50 PM54 °FMostly cloudy.8 mph77%30.18 "HgN/A
7:20 PM54 °FOvercast.7 mph72%30.18 "HgN/A
6:50 PM54 °FOvercast.7 mph72%30.21 "HgN/A
6:20 PM54 °FPassing clouds.6 mph72%30.21 "HgN/A
5:50 PM54 °FPassing clouds.5 mph67%30.21 "HgN/A
5:20 PM55 °FPartly sunny.5 mph63%30.21 "HgN/A
4:50 PM55 °FPartly sunny.5 mph63%30.21 "HgN/A
4:20 PM55 °FPartly sunny.12 mph63%30.24 "HgN/A
Weather by CustomWeather, © 2016

See weather overviewHow to use our weather pages